Location: Krasnoyarskiy Pitomnik
(51.1333°N, 71.6167°E)
Time: 01:27:52
(UTC+00:00)

DNEPR OBJECT AF - Visible Passes

Search period start: 23 May 2025 00:00
Search period end: 02 June 2025 00:00
Orbit: 533 x 593 km, 97.7° (Epoch: 22 May)

Date Brightness Start Highest point End Pass type
(mag) Time Alt. Az. Time Alt. Az. Time Alt. Az.
23 May ? 21:14:40 10° ENE 21:16:05 12° E 21:17:30 10° ESE visible
24 May ? 21:14:24 10° ENE 21:15:47 12° E 21:17:11 10° ESE visible
25 May ? 21:14:06 10° ENE 21:15:28 11° E 21:16:50 10° ESE visible
26 May ? 21:13:48 10° ENE 21:15:08 11° E 21:16:29 10° ESE visible
27 May ? 21:13:29 10° ENE 21:14:48 11° E 21:16:07 10° ESE visible
28 May ? 21:13:10 10° ENE 21:14:27 11° E 21:15:44 10° ESE visible
29 May ? 21:12:50 10° ENE 21:14:06 11° E 21:15:21 10° ESE visible
30 May ? 21:12:30 10° ENE 21:13:43 11° E 21:14:56 10° ESE visible
31 May ? 21:12:09 10° ENE 21:13:20 11° E 21:14:32 10° ESE visible
01 Jun ? 21:11:47 10° ENE 21:12:56 11° E 21:14:06 10° ESE visible
